This demonstration page uses our WeatherBlox Daily Observations layout. Learn more.

Left ArrowRight Arrow

Hourly Observations for April 5, 2021

Temp ( °F °C ) Dew Point ( °F °C ) Humidity (%) Winds ( mph kmh ) Pressure ( in mb ) Visibility ( mi km ) Precip ( " mm )
12:53 am 00:53 Cloudy with Light Rain 43 6.1 32 0 65 65 NNE 8 13 29.94 1014 10 16 0.00 0.00
1:13 am 01:13 Cloudy with Light Rain 41 5 33 0.6 73 73 NNE 7 11 30.00 1016 10 16 0.01 0.25
1:53 am 01:53 Cloudy with Light Rain 40 4.4 35 1.7 83 83 N 7 11 29.96 1015 10 16 0.02 0.51
2:00 am 02:00 Cloudy with Light Rain 39 3.9 36 2.2 89 89 N 6 9 30.02 1017 10 16 0.00 0.00
2:53 am 02:53 Cloudy with Light Rain 39 3.9 35 1.7 86 86 N 7 11 29.95 1014 10 16 0.02 0.51
3:53 am 03:53 Cloudy with Light Rain 39 3.9 35 1.7 86 86 Calm 29.96 1014 10 16 0.00 0.00
4:53 am 04:53 Partly Cloudy with Isolated Snow Showers 38 3.3 35 1.7 89 89 NW 6 9 29.97 1015 9 14 0.00 0.00
5:53 am 05:53 Clear with Light Snow 36 2.2 33 0.6 89 89 Calm 29.96 1015 9 14 0.00 0.00
6:53 am 06:53 Sunny with Light Snow 35 1.7 33 0.6 93 93 WNW 3 6 29.98 1015 9 14 0.00 0.00
7:16 am 07:16 Partly Cloudy 36 2.2 33 0.6 89 89 WSW 5 7 30.04 1017 10 16 0.00 0.00
7:53 am 07:53 Mostly Sunny 35 1.7 33 0.6 93 93 WSW 5 7 30.00 1016 10 16 0.00 0.00
8:53 am 08:53 Mostly Sunny 38 3.3 34 1.1 86 86 Calm 30.01 1016 10 16 0.00 0.00
9:53 am 09:53 Sunny 41 5 34 1.1 76 76 NE 5 7 30.00 1016 10 16 0.00 0.00
10:53 am 10:53 Sunny 44 6.7 31 -0.6 60 60 undefined N/A 30.00 1016 10 16 0.00 0.00
11:53 am 11:53 Sunny 45 7.2 27 -2.8 49 49 VRB 3 6 29.99 1016 10 16 0.00 0.00
12:53 pm 12:53 Sunny 48 8.9 25 -3.9 41 41 Calm 29.96 1015 10 16 0.00 0.00
1:53 pm 13:53 Sunny 50 10 26 -3.3 39 39 ENE 5 7 29.95 1014 10 16 0.00 0.00
2:53 pm 14:53 Sunny 51 10.6 25 -3.9 36 36 VRB 5 7 29.93 1014 10 16 0.00 0.00
3:53 pm 15:53 Sunny 52 11.1 23 -5 32 32 ENE 6 9 29.92 1013 10 16 0.00 0.00
4:53 pm 16:53 Sunny 52 11.1 23 -5 32 32 VRB 3 6 29.90 1013 10 16 0.00 0.00
5:53 pm 17:53 Sunny 53 11.7 23 -5 31 31 Calm 29.90 1013 10 16 0.00 0.00
6:53 pm 18:53 Sunny 52 11.1 25 -3.9 35 35 Calm 29.90 1013 10 16 0.00 0.00
7:53 pm 19:53 Sunny 46 7.8 27 -2.8 47 47 SW 7 11 29.90 1013 10 16 0.00 0.00
8:53 pm 20:53 Clear 41 5 28 -2.2 60 60 SSW 9 15 29.93 1013 10 16 0.00 0.00
9:53 pm 21:53 Clear 38 3.3 29 -1.7 70 70 SW 8 13 29.94 1014 10 16 0.00 0.00
10:53 pm 22:53 Clear 35 1.7 28 -2.2 76 76 Calm 29.93 1014 10 16 0.00 0.00
11:53 pm 23:53 Clear 32 0 27 -2.8 82 82 SW 3 6 29.94 1014 10 16 0.00 0.00

Powered by AerisWeather